Location: Observatoire
(46.1952°N, 5.3391°E)
Time: 21:48:55
(UTC+01:00)

Tiros 1 despin weight - Pass Details

Date: 26 February 2026
Orbit: 556 x 593 km, 48.2° (Epoch: 3 March)

Event Time Altitude Azimuth Distance (km) Brightness Sun altitude
Rises 16:46:26 0° 287° (WNW) 2,744 ? 14.4°
Reaches altitude 10° 16:48:41 10° 286° (WNW) 1,844 ? 14.0°
Maximum altitude 16:52:54 80° 201° (SSW) 568 ? 13.4°
Drops below altitude 10° 16:57:05 10° 113° (ESE) 1,832 ? 12.7°
Sets 16:59:19 0° 113° (ESE) 2,726 ? 12.4°
